Weather Roundup
Issued by NWS Chicago, IL

Home | Current Version | Previous Version | Text Only | Print | Product List | Glossary On
Versions: 1 2 3 4 5 6 7 8 9 10 11 12 13 14 15 16 17 18 19 20 21 22 23 24 25 26 27 28 29 30 31 32 33 34 35 36 37 38 39 40 41 42 43 44 45 46 47 48 49 50
000
NZUS59 KLOT 231000
HRRLOT

CHICAGO AREA WEATHER ROUNDUP
NATIONAL WEATHER SERVICE CHICAGO/ROMEOVILLE IL
500 AM CDT WED APR 23 2014

NOTE: "FAIR" INDICATES FEW OR NO CLOUDS BELOW 12,000 FEET WITH NO
SIGNIFICANT WEATHER AND/OR OBSTRUCTIONS TO VISIBILITY.

* THESE STATIONS ARE NOT UNDER NWS QUALITY CONTROL. THEY ALSO MAY NOT
  REPORT WEATHER SUCH AS PRECIPITATION OR FOG.

ILZ005-006-012>014-019>023-231100-
NORTHEAST ILLINOIS

CITY           SKY/WX    TMP DP  RH WIND       PRES   REMARKS
OHARE          CLEAR     35  26  69 N7        30.13S WCI  29
MIDWAY         CLEAR     37  28  70 N12       30.13R
AURORA         CLEAR     31  26  82 NE6       30.13R WCI  25
WAUKEGAN       CLEAR     30  26  85 NW3       30.14R
DUPAGE AIRPORT CLEAR     29  25  85 N6        30.13R WCI  23
WHEELING       CLEAR     34  28  79 N5        30.15R WCI  30
NORTHERLY IS     N/A     37  29  73 N15         N/A
$$

WIZ051-052-058>065-066-070>072-231100-
SOUTHEAST WISCONSIN

CITY           SKY/WX    TMP DP  RH WIND       PRES   REMARKS
MILWAUKEE      PTCLDY    34  27  75 N6        30.15S WCI  29
KENOSHA*       CLEAR     32  27  81 N5        30.14R WCI  27
RACINE*        CLEAR     34  28  79 N8        30.16R WCI  27
$$

INZ001>003-010>013-019-020-231100-
NORTHWEST INDIANA

CITY           SKY/WX    TMP DP  RH WIND       PRES   REMARKS
GARY*          CLEAR     37  30  75 N12       30.14R
MICHIGAN CITY* NOT AVBL
RENSSELAER*    NOT AVBL
VALPARAISO     CLEAR     34  26  72 N10       30.10S WCI  26
$$

LMZ740>746-231100-
SOUTHERN LAKE MICHIGAN

STATION/POSITION TIME  SKY/WX   TEMP WIND        PRES    VSBY
                                AIR  DIR/SP/G
                 (UTC)          (F)  (DEG/KT/KT) (MB)    (MI)
HARRISON CRIB    0900            37  360/ 16/ 21   N/A
BURNHAM HARBOR   1000            37  360/ 13/ 16   N/A
CALUMET HARBOR   0900            37  360/ 14/ 19 1021.1R
BURNS HARBOR     NOT AVBL
MICHIGAN CITY    0900            36  350/ 17/ 21   N/A
$$

ABBREVIATIONS USED IN REMARKS
   TC - TEMPERATURE IN CELSIUS
  WCI - WIND CHILL INDEX
   HX - HEAT INDEX
  VSB - VISIBILITY
$$


USA.gov is the U.S. government's official web portal to all federal, state and local government web resources and services.